Oakes, ND

6:36 AM CST on November 13, 2019 (GMT -0600)
Oakes

Weather History for K2D5 - September, 2019

Change the Weather History Date:

Sunday, September 8, 2019

  Actual Average (WUND) Record (WUND)
Temperature  
Mean Temperature 54 °F -  
Max Temperature 59 °F - - (-1)
Min Temperature 50 °F - - (-1)
Degree Days  
Heating Degree Days 10    
Growing Degree Days 4 (Base 50)    
Moisture  
Dew Point 53 °F    
Average Humidity 98    
Maximum Humidity 100    
Minimum Humidity 82    
Precipitation  
Precipitation 0.00 in - - ()
Sea Level Pressure  
Sea Level Pressure 30.10 in    
Wind  
Wind Speed 10 mph (ENE)    
Max Wind Speed 14 mph    
Max Gust Speed 17 mph    
Visibility 8 miles    
Events      
Averages and records for this station are not official NWS values.
T = Trace of Precipitation, MM = Missing Value Source: NWS Daily Summary

Daily Weather History Graph

Daily Weather History Graph

Search for Another Location

Airport or City:

Astronomy

Sep. 08, 2019 Rise Set
Actual Time 7:01 AM CDT 7:57 PM CDT
Civil Twilight 6:30 AM CDT 8:28 PM CDT
Nautical Twilight 5:54 AM CDT 9:04 PM CDT
Astronomical Twilight 5:15 AM CDT 9:42 PM CDT
Moon 5:24 PM CDT (9/8) 1:25 AM CDT (9/8)
Length of Visible Light 13h 57m
Length of Day
12h 56m
Waxing Gibbous, 75% of the Moon is Illuminated
Sep 8
Waxing Gibbous
Sep 13
Full
Sep 21
Last Quarter
Sep 28
New
Oct 5
First Quarter

Hourly Weather History & Observations

Time (CDT) Temp. Dew Point Humidity Pressure Visibility Wind Dir Wind Speed Gust Speed Precip Events Conditions
12:35 AM 50.0 °F 50.0 °F 100% 30.11 in 10.0 mi East 13.8 mph - N/A   Overcast
12:55 AM 50.0 °F 50.0 °F 100% 30.10 in 10.0 mi ENE 10.4 mph - N/A   Overcast
1:55 AM 50.0 °F 50.0 °F 100% 30.10 in 10.0 mi ENE 12.7 mph - N/A   Overcast
2:55 AM 50.0 °F 50.0 °F 100% 30.10 in 3.0 mi ENE 11.5 mph - N/A   Overcast
3:15 AM 50.0 °F 50.0 °F 100% 30.11 in 3.0 mi ENE 9.2 mph 15.0 mph N/A   Overcast
3:35 AM 50.0 °F 50.0 °F 100% 30.10 in 2.5 mi NE 9.2 mph - N/A   Overcast
3:55 AM 50.0 °F 50.0 °F 100% 30.10 in 2.5 mi ENE 8.1 mph - N/A   Overcast
4:15 AM 50.0 °F 50.0 °F 100% 30.10 in 4.0 mi ENE 9.2 mph - N/A   Overcast
4:35 AM 50.0 °F 50.0 °F 100% 30.11 in 6.0 mi NE 9.2 mph - N/A   Overcast
4:55 AM 50.0 °F 50.0 °F 100% 30.11 in 6.0 mi NE 8.1 mph - N/A   Overcast
5:15 AM 50.0 °F 50.0 °F 100% 30.11 in 3.0 mi NE 8.1 mph - N/A   Overcast
5:35 AM 50.0 °F 50.0 °F 100% 30.12 in 3.0 mi NE 6.9 mph - N/A   Overcast
5:55 AM 50.0 °F 50.0 °F 100% 30.12 in 3.0 mi NE 6.9 mph - N/A   Overcast
6:35 AM 50.0 °F 50.0 °F 100% 30.12 in 3.0 mi NE 8.1 mph - N/A   Overcast
6:55 AM 50.0 °F 50.0 °F 100% 30.11 in 10.0 mi NE 9.2 mph - N/A   Overcast
7:55 AM 50.0 °F 50.0 °F 100% 30.11 in 10.0 mi ENE 8.1 mph - N/A   Overcast
8:15 AM 50.0 °F 50.0 °F 100% 30.12 in 10.0 mi NE 8.1 mph - N/A   Overcast
8:55 AM 50.0 °F 50.0 °F 100% 30.12 in 8.0 mi ENE 8.1 mph - N/A   Overcast
9:15 AM 50.0 °F 50.0 °F 100% 30.13 in 3.0 mi ENE 10.4 mph - N/A   Overcast
9:35 AM 51.8 °F 51.8 °F 100% 30.13 in 2.5 mi East 9.2 mph - N/A   Mostly Cloudy
9:55 AM 51.8 °F 51.8 °F 100% 30.12 in 5.0 mi East 12.7 mph - N/A   Mostly Cloudy
10:15 AM 51.8 °F 51.8 °F 100% 30.12 in 10.0 mi ENE 11.5 mph - N/A   Overcast
10:35 AM 51.8 °F 51.8 °F 100% 30.12 in 10.0 mi East 13.8 mph - N/A   Overcast
10:55 AM 53.6 °F 53.6 °F 100% 30.12 in 10.0 mi East 8.1 mph - N/A   Overcast
11:15 AM 53.6 °F 53.6 °F 100% 30.12 in 10.0 mi East 10.4 mph - N/A   Overcast
11:55 AM 55.4 °F 55.4 °F 100% 30.11 in 10.0 mi ENE 11.5 mph - N/A   Overcast
12:15 PM 55.4 °F 55.4 °F 100% 30.12 in 10.0 mi ENE 9.2 mph - N/A   Overcast
12:55 PM 55.4 °F 53.6 °F 94% 30.11 in 10.0 mi East 10.4 mph - N/A   Overcast
2:15 PM 55.4 °F 55.4 °F 100% 30.11 in 10.0 mi NE 6.9 mph - N/A   Overcast
2:35 PM 57.2 °F 55.4 °F 94% 30.09 in 10.0 mi NE 9.2 mph - N/A   Overcast
3:15 PM 59.0 °F 55.4 °F 88% 30.09 in 10.0 mi ENE 10.4 mph - N/A   Overcast
3:55 PM 59.0 °F 55.4 °F 88% 30.09 in 10.0 mi East 10.4 mph - N/A   Overcast
6:15 PM 59.0 °F 55.4 °F 88% 30.05 in 10.0 mi East 12.7 mph - N/A   Overcast
6:35 PM 59.0 °F 55.4 °F 88% 30.05 in 10.0 mi East 10.4 mph 17.3 mph N/A   Overcast
6:55 PM 59.0 °F 53.6 °F 82% 30.05 in 10.0 mi East 12.7 mph - N/A   Overcast
7:35 PM 57.2 °F 55.4 °F 94% 30.05 in 10.0 mi East 8.1 mph - N/A   Overcast
7:55 PM 57.2 °F 57.2 °F 100% 30.05 in 10.0 mi East 10.4 mph - N/A   Overcast
8:55 PM 57.2 °F 57.2 °F 100% 30.05 in 10.0 mi ESE 12.7 mph - N/A   Overcast
9:15 PM 57.2 °F 57.2 °F 100% 30.06 in 10.0 mi ESE 11.5 mph - N/A   Overcast
9:55 PM - - N/A% 30.06 in 10.0 mi ESE 12.7 mph - N/A   Overcast
10:15 PM 55.4 °F 55.4 °F 100% 30.06 in 10.0 mi East 10.4 mph - N/A   Overcast
10:35 PM 55.4 °F 55.4 °F 100% 30.07 in 10.0 mi East 10.4 mph - N/A   Overcast
10:55 PM 55.4 °F 55.4 °F 100% 30.07 in 10.0 mi ESE 12.7 mph - N/A   Overcast
11:35 PM 55.4 °F 55.4 °F 100% 30.07 in 10.0 mi ESE 11.5 mph - N/A   Overcast